TimeMDT,TemperatureF,Dew PointF,Humidity,Sea Level PressureIn,VisibilityMPH,Wind Direction,Wind SpeedMPH,Gust SpeedMPH,PrecipitationIn,Events,Conditions,WindDirDegrees,DateUTC
12:13 AM,48.2,44.6,87,30.15,10.0,ENE,15.0,18.4,N/A,,Overcast,60,2013-05-23 06:13:00
12:35 AM,48.2,42.8,82,30.17,10.0,ENE,6.9,-,N/A,,Overcast,70,2013-05-23 06:35:00
12:53 AM,48.0,43.0,83,30.09,10.0,East,10.4,-,N/A,,Overcast,80,2013-05-23 06:53:00
1:34 AM,48.2,42.8,82,30.14,10.0,East,15.0,-,N/A,,Overcast,80,2013-05-23 07:34:00
1:53 AM,46.9,43.0,86,30.06,10.0,East,13.8,-,N/A,,Overcast,80,2013-05-23 07:53:00
2:53 AM,46.9,43.0,86,30.09,10.0,East,10.4,-,N/A,,Overcast,90,2013-05-23 08:53:00
3:53 AM,46.9,44.1,90,30.09,10.0,ESE,11.5,-,N/A,,Overcast,110,2013-05-23 09:53:00
4:53 AM,46.9,43.0,86,30.09,10.0,ESE,11.5,-,N/A,,Overcast,120,2013-05-23 10:53:00
5:53 AM,46.0,43.0,89,30.11,10.0,ESE,11.5,-,N/A,,Overcast,110,2013-05-23 11:53:00
6:53 AM,46.0,43.0,89,30.13,10.0,ESE,11.5,-,N/A,,Overcast,120,2013-05-23 12:53:00
7:53 AM,46.9,43.0,86,30.15,10.0,SE,10.4,-,N/A,,Overcast,130,2013-05-23 13:53:00
8:23 AM,46.4,44.6,93,30.19,6.0,SE,12.7,-,N/A,,Overcast,140,2013-05-23 14:23:00
8:53 AM,48.0,45.0,89,30.16,6.0,SE,10.4,-,N/A,,Overcast,130,2013-05-23 14:53:00
9:14 AM,48.2,44.6,87,30.20,9.0,SE,10.4,-,N/A,,Overcast,130,2013-05-23 15:14:00
9:53 AM,51.1,45.0,80,30.15,10.0,ESE,13.8,-,N/A,,Overcast,110,2013-05-23 15:53:00
10:07 AM,53.6,44.6,72,30.18,10.0,SE,13.8,-,N/A,,Overcast,130,2013-05-23 16:07:00
10:33 AM,53.6,44.6,72,30.17,10.0,SE,13.8,-,N/A,,Overcast,140,2013-05-23 16:33:00
10:53 AM,55.9,45.0,67,30.12,10.0,SE,15.0,-,N/A,,Overcast,140,2013-05-23 16:53:00
11:53 AM,61.0,45.0,56,30.10,10.0,SSE,16.1,26.5,N/A,,Mostly Cloudy,150,2013-05-23 17:53:00
12:07 PM,62.6,44.6,52,30.16,10.0,SE,16.1,23.0,N/A,,Scattered Clouds,140,2013-05-23 18:07:00
12:53 PM,66.0,46.0,48,30.07,10.0,SE,18.4,24.2,N/A,,Scattered Clouds,140,2013-05-23 18:53:00
1:53 PM,64.9,46.0,50,30.04,10.0,SE,21.9,29.9,N/A,,Overcast,130,2013-05-23 19:53:00
2:53 PM,64.9,46.9,52,30.05,10.0,SSE,21.9,29.9,N/A,,Overcast,150,2013-05-23 20:53:00
3:53 PM,64.0,46.9,54,30.03,10.0,SSE,25.3,29.9,N/A,,Overcast,160,2013-05-23 21:53:00
4:53 PM,63.0,48.0,58,30.03,10.0,SSE,19.6,31.1,N/A,,Overcast,160,2013-05-23 22:53:00
5:53 PM,62.1,48.0,60,30.03,10.0,SSE,20.7,28.8,N/A,,Overcast,150,2013-05-23 23:53:00
6:53 PM,62.1,46.9,58,30.03,10.0,SSE,25.3,31.1,N/A,,Overcast,150,2013-05-24 00:53:00
7:53 PM,61.0,48.0,62,30.02,10.0,SE,19.6,27.6,N/A,,Overcast,140,2013-05-24 01:53:00
8:53 PM,60.1,48.0,64,30.01,10.0,SE,21.9,29.9,N/A,,Overcast,140,2013-05-24 02:53:00
9:53 PM,60.1,48.0,64,30.01,10.0,SE,19.6,29.9,N/A,,Overcast,140,2013-05-24 03:53:00
10:53 PM,60.1,48.9,67,30.01,10.0,SSE,23.0,-,N/A,,Overcast,150,2013-05-24 04:53:00
11:53 PM,60.1,50.0,69,29.97,10.0,South,27.6,36.8,N/A,,Overcast,170,2013-05-24 05:53:00